Regional Weather Roundup
Issued by NWS Albany, NY

Current Version | Previous Version | Graphics & Text | Print | Product List | Glossary Off
Versions: 1 2 3 4 5 6 7 8 9 10 11 12 13 14 15 16 17 18 19 20 21 22 23 24 25 26 27 28 29 30 31 32 33 34 35 36 37 38 39 40 41 42 43 44 45 46 47 48 49 50

000
ASUS41 KALY 132010
RWRALY

NEW YORK STATE HOURLY WEATHER ROUNDUP
NATIONAL WEATHER SERVICE ALBANY NY
300 PM EST SAT FEB 13 2016

NOTE: "FAIR" INDICATES FEW OR NO CLOUDS BELOW 12,000 FEET WITH NO
SIGNIFICANT WEATHER AND/OR NO OBSTRUCTIONS TO VISIBILITY.

NYZ032-033-038>043-046>054-057>066-NYZ062>081-132100-
EAST


CITY           SKY/WX    TMP DP  RH WIND       PRES   REMARKS
ALBANY         PTSUNNY    4 -16  39 W17G38    30.15R WCI -16
GLENS FALLS    PTSUNNY    5 -21  29 W15G28    30.09R WCI -13
POUGHKEEPSIE   MOSUNNY   13 -15  27 W24G33    30.11R WCI  -7
NEWBURGH       MOSUNNY    9 -13  37 NW24G38   30.10R WCI -12
MONTGOMERY     SUNNY     10 -15  31 NW24G37   30.12R WCI -10
WHITE PLAINS   MOSUNNY   13 -12  32 W29G41    30.05R WCI  -8
ISLIP          MOSUNNY   16  -7  35 NW23G40   30.04R WCI  -2
NEW YORK CITY  MOSUNNY   19  -2  39 NW29G41   30.10R WCI   0
CENTRAL PARK   MOSUNNY   17 -13  25 W16G32    30.12R WCI   2
$$

NYZ005>009-017-018-044>046-055-056-132100-
CENTRAL


CITY           SKY/WX    TMP DP  RH WIND       PRES   REMARKS
FULTON         LGT SNOW   0  -9  65 NW15      30.25S VSB 1   WCI -19
SYRACUSE       SNOW      -3  -7  82 NW13      30.25R VSB 1/2 WCI -22
ROME           MOSUNNY   -5 -16  59 W21G31    30.24R HAZE    WCI -29
ELMIRA         CLOUDY     2 -12  52 NW14G22   30.22R WCI -16
BINGHAMTON     CLOUDY    -4 -16  56 NW16G29   30.08R BLWGSNOWWCI -25
MONTICELLO     PTSUNNY    1 -13  51 NW16G31   30.04R WCI -18
$$

NYZ026>034-041>043-132100-
NORTH


CITY           SKY/WX    TMP DP  RH WIND       PRES   REMARKS
WATERTOWN      CLOUDY    -9 -22  53 NW15      30.29S WCI -31
FORT DRUM      NOT AVBL
MASSENA        CLOUDY   -12 -27  47 W20       30.27R WCI -37
SARANAC LAKE   CLOUDY   -16 -26  61 W9G23     29.97R HAZE    WCI -35
PLATTSBURGH    MOSUNNY   -7 -25  41 W12G22    30.16R WCI -26
$$

NYZ001>004-010>016-019>021-132100-
WEST


CITY           SKY/WX    TMP DP  RH WIND       PRES   REMARKS
NIAGARA FALLS  PTSUNNY    3 -10  54 NW15      30.32F WCI -16
BUFFALO        FLURRIES   2 -11  54 W15       30.31S WCI -17
DUNKIRK        CLOUDY     6  -5  60 W17G24    30.34S WCI -13
JAMESTOWN      CLOUDY     3  -6  66 NW18G25   30.18S VSB 3/4 WCI -17
WELLSVILLE     LGT SNOW   1  -9  62 NW24G35   30.10S VSB 1   WCI -22
ROCHESTER      LGT SNOW   1 -10  60 W16G25    30.31R WCI -19
PENN YAN       MIX PCPN   1 -13  51 W13G29    30.24R WCI -17
$$

             KEY
       WCI = WIND CHILL INDEX
       VSB = VISIBILITY
       HX  = HEAT INDEX
$$



USA.gov is the U.S. government's official web portal to all federal, state and local government web resources and services.